Location: Newark
(30.0333°N, 31.2167°E)
Time: 01:55:17
(UTC+00:00)

Starlink Launch 2 trailer - Visible Passes

Search period start: 16 December 2019 00:00
Search period end: 26 December 2019 00:00
Orbit: 279 x 281 km, 53.0° (Epoch: 13 November)

Date Brightness Start Highest point End Pass type
(mag) Time Alt. Az. Time Alt. Az. Time Alt. Az.
18 Dec 4.6 15:39:10 10° SSE 15:40:18 12° SE 15:41:10 11° ESE visible
19 Dec 3.3 15:39:53 10° SSW 15:42:06 30° SE 15:43:35 16° ENE visible
20 Dec 2.2 15:41:32 10° SW 15:43:58 83° NW 15:45:55 15° NE visible
21 Dec 4.0 15:43:43 10° WSW 15:45:55 28° NW 15:48:07 10° NNE visible
22 Dec 5.1 15:46:38 10° WNW 15:47:56 13° NW 15:49:14 10° N visible
